Gaylord, MI

9:49 AM EST on February 06, 2016 (GMT -0500)
Otsego County

Weather History for KGLR - December, 2013

Change the Weather History Date:

Sunday, December 22, 2013

  Actual Average Record
Temperature  
Mean Temperature 16 °F -  
Max Temperature 21 °F 29 °F 50 °F (1957)
Min Temperature 12 °F 15 °F -10 °F (1989)
Degree Days  
Heating Degree Days 48    
Moisture  
Dew Point 15 °F    
Average Humidity 87    
Maximum Humidity 93    
Minimum Humidity 77    
Precipitation  
Precipitation 0.12 in - - ()
Sea Level Pressure  
Sea Level Pressure 29.81 in    
Wind  
Wind Speed 13 mph (NE)    
Max Wind Speed 21 mph    
Max Gust Speed 31 mph    
Visibility 2 miles    
Events Fog , Snow    
Averages and records for this station are not official NWS values.
T = Trace of Precipitation, MM = Missing Value Source: NWS Daily Summary

Daily Weather History Graph

Daily Weather History Graph

Search for Another Location

Airport or City:

Trip Planner

Search our weather history database for the weather conditions in past years. The results will help you decide how hot, cold, wet, or windy it might be!

Date:

Astronomy

Dec. 22, 2013 Rise Set
Actual Time 8:14 AM EST 5:00 PM EST
Civil Twilight 7:40 AM EST 5:34 PM EST
Nautical Twilight 7:03 AM EST 6:11 PM EST
Astronomical Twilight 6:27 AM EST 6:47 PM EST
Moon 10:25 PM EST (12/22) 10:58 AM EST (12/22)
Length of Visible Light 9h 53m
Length of Day
8h 45m
Waning Gibbous, 77% of the Moon is Illuminated
Dec 22
Waning Gibbous
Dec 25
Last Quarter
Jan 1
New
Jan 7
First Quarter
Jan 15
Full

Hourly Weather History & Observations

Time (EST) Temp. Windchill Dew Point Humidity Pressure Visibility Wind Dir Wind Speed Gust Speed Precip Events Conditions
12:53 AM 21.9 °F 9.2 °F 19.0 °F 89% 29.83 in 8.0 mi NE 13.8 mph - N/A   Overcast
1:53 AM 21.9 °F 10.4 °F 19.0 °F 89% 29.80 in 4.0 mi ENE 11.5 mph 19.6 mph 0.00 in   Overcast
2:53 AM 21.0 °F 7.1 °F 19.0 °F 92% 29.84 in 2.0 mi ENE 16.1 mph 25.3 mph 0.00 in Snow Light Snow
3:02 AM 21.0 °F 8.6 °F 18.0 °F 88% 29.79 in 1.5 mi NE 12.7 mph 23.0 mph 0.00 in Snow Light Snow
3:42 AM 21.0 °F 8.6 °F 19.0 °F 92% 29.80 in 2.5 mi NE 12.7 mph - 0.00 in Snow Light Snow
3:47 AM 21.2 °F 8.3 °F 19.4 °F 93% 29.78 in 3.0 mi NE 13.8 mph - 0.00 in Snow Light Snow
3:53 AM 21.0 °F 6.2 °F 18.0 °F 88% 29.83 in 2.5 mi ENE 18.4 mph 25.3 mph 0.00 in Snow Light Snow
4:21 AM 21.0 °F 8.6 °F 18.0 °F 88% 29.77 in 2.5 mi NE 12.7 mph 26.5 mph 0.01 in Snow Light Snow
4:39 AM 19.9 °F 5.7 °F 18.0 °F 92% 29.77 in 1.0 mi NE 16.1 mph 20.7 mph 0.01 in Snow Light Snow
4:50 AM 19.4 °F 6.0 °F 17.6 °F 93% 29.75 in 0.8 mi NE 13.8 mph 23.0 mph 0.01 in Snow Light Snow
4:53 AM 19.9 °F 6.7 °F 18.0 °F 92% 29.82 in 0.8 mi ENE 13.8 mph 24.2 mph 0.01 in Snow Light Snow
5:03 AM 19.9 °F 6.7 °F 17.1 °F 89% 29.75 in 0.5 mi NE 13.8 mph 24.2 mph 0.00 in Fog , Snow Snow
5:18 AM 19.9 °F 6.7 °F 17.1 °F 89% 29.72 in 1.0 mi NE 13.8 mph - 0.01 in Snow Light Snow
5:38 AM 19.9 °F 5.2 °F 17.1 °F 89% 29.73 in 1.2 mi ENE 17.3 mph 25.3 mph 0.01 in Snow Light Snow
5:53 AM 19.9 °F 5.7 °F 17.1 °F 89% 29.78 in 1.5 mi ENE 16.1 mph 24.2 mph 0.01 in Snow Light Snow
6:02 AM 19.9 °F 4.3 °F 16.0 °F 85% 29.71 in 1.8 mi NE 19.6 mph 25.3 mph 0.00 in Snow Light Snow
6:20 AM 19.9 °F 5.7 °F 16.0 °F 85% 29.72 in 2.5 mi ENE 16.1 mph 23.0 mph 0.00 in Snow Light Snow
6:45 AM 19.9 °F 5.7 °F 16.0 °F 85% 29.70 in 1.5 mi NE 16.1 mph 27.6 mph 0.00 in Snow Light Snow
6:53 AM 19.9 °F 6.2 °F 16.0 °F 85% 29.78 in 1.2 mi ENE 15.0 mph 25.3 mph 0.00 in Snow Light Snow
7:13 AM 19.9 °F 6.7 °F 17.1 °F 89% 29.73 in 0.8 mi NE 13.8 mph 25.3 mph 0.00 in Snow Light Snow
7:20 AM 19.9 °F 5.7 °F 17.1 °F 89% 29.73 in 0.8 mi NE 16.1 mph - 0.00 in Snow Light Snow
7:53 AM 19.0 °F 5.6 °F 17.1 °F 92% 29.79 in 0.5 mi NE 13.8 mph - 0.02 in Fog , Snow Snow
8:10 AM 19.0 °F 5.0 °F 17.1 °F 92% 29.72 in 0.8 mi NE 15.0 mph 21.9 mph 0.00 in Snow Light Snow
8:53 AM 19.0 °F 5.0 °F 16.0 °F 88% 29.78 in 0.5 mi NE 15.0 mph - 0.00 in Fog , Snow Snow
9:00 AM 19.0 °F 4.5 °F 16.0 °F 88% 29.72 in 1.0 mi NE 16.1 mph 23.0 mph 0.00 in Snow Light Snow
9:15 AM 19.0 °F 3.6 °F 16.0 °F 88% 29.71 in 0.5 mi NE 18.4 mph 27.6 mph 0.00 in Fog , Snow Snow
9:53 AM 19.0 °F 5.6 °F 16.0 °F 88% 29.78 in 0.8 mi NE 13.8 mph 24.2 mph 0.01 in Snow Light Snow
10:10 AM 19.0 °F 2.7 °F 16.0 °F 88% 29.71 in 0.5 mi NE 20.7 mph 26.5 mph 0.00 in Fog , Snow Snow
10:26 AM 19.0 °F 4.0 °F 15.1 °F 85% 29.71 in 0.8 mi NE 17.3 mph 31.1 mph 0.00 in Snow Light Snow
10:53 AM 19.0 °F 3.6 °F 15.1 °F 85% 29.78 in 0.8 mi NE 18.4 mph 25.3 mph 0.01 in Snow Light Snow
11:09 AM 19.0 °F 5.0 °F 15.1 °F 85% 29.74 in 1.0 mi NE 15.0 mph 24.2 mph 0.00 in Snow Light Snow
11:22 AM 19.0 °F 7.5 °F 16.0 °F 88% 29.75 in 0.8 mi NE 10.4 mph - 0.00 in Snow Light Snow
11:49 AM 17.6 °F 3.7 °F 15.8 °F 93% 29.76 in 0.5 mi NE 13.8 mph 24.2 mph 0.01 in Fog , Snow Snow
11:53 AM 18.0 °F 4.2 °F 15.1 °F 88% 29.82 in 0.5 mi NE 13.8 mph 20.7 mph 0.01 in Fog , Snow Snow
12:06 PM 18.0 °F 6.1 °F 15.1 °F 88% 29.74 in 0.2 mi NE 10.4 mph 19.6 mph 0.01 in Fog , Snow Snow
12:45 PM 18.0 °F 5.4 °F 14.0 °F 84% 29.76 in 0.5 mi NE 11.5 mph 20.7 mph 0.03 in Fog , Snow Snow
12:53 PM 18.0 °F 6.1 °F 14.0 °F 84% 29.83 in 0.5 mi NE 10.4 mph - 0.03 in Fog , Snow Snow
1:18 PM 18.0 °F 4.8 °F 14.0 °F 84% 29.77 in 1.0 mi NE 12.7 mph 19.6 mph 0.00 in Snow Light Snow
1:44 PM 18.0 °F 6.9 °F 14.0 °F 84% 29.77 in 0.8 mi NNE 9.2 mph - 0.01 in Snow Light Snow
1:53 PM 18.0 °F 7.7 °F 15.1 °F 88% 29.85 in 0.8 mi NE 8.1 mph - 0.01 in Snow Light Snow
2:17 PM 19.0 °F 5.6 °F 15.1 °F 85% 29.75 in 0.5 mi NE 13.8 mph - 0.00 in Fog , Snow Snow
2:25 PM 19.0 °F 6.1 °F 15.1 °F 85% 29.73 in 0.8 mi NE 12.7 mph - 0.00 in Snow Light Snow
2:34 PM 19.0 °F 6.8 °F 15.1 °F 85% 29.73 in 1.5 mi NE 11.5 mph - 0.00 in Snow Light Snow
2:44 PM 19.0 °F 9.0 °F 15.1 °F 85% 29.74 in 2.5 mi NE 8.1 mph - 0.00 in Snow Light Snow
2:53 PM 19.0 °F 7.5 °F 14.0 °F 81% 29.83 in 3.0 mi NE 10.4 mph - 0.00 in Snow Light Snow
3:10 PM 19.0 °F 6.8 °F 12.9 °F 77% 29.78 in 9.0 mi NE 11.5 mph - 0.00 in   Overcast
3:17 PM 19.0 °F 10.0 °F 12.9 °F 77% 29.80 in 10.0 mi Variable 6.9 mph - 0.00 in   Overcast
3:53 PM 18.0 °F 12.7 °F 15.1 °F 88% 29.89 in 3.0 mi Variable 3.5 mph - 0.00 in Snow Light Snow
4:22 PM 18.0 °F 8.7 °F 14.0 °F 84% 29.83 in 2.5 mi NE 6.9 mph - 0.00 in Snow Light Snow
4:45 PM 17.1 °F 8.7 °F 14.0 °F 88% 29.83 in 3.0 mi NNE 5.8 mph - 0.00 in Snow Light Snow
4:53 PM 17.1 °F 7.6 °F 14.0 °F 88% 29.92 in 5.0 mi NNE 6.9 mph - 0.00 in Snow Light Snow
5:05 PM 17.1 °F 8.7 °F 14.0 °F 88% 29.86 in 7.0 mi NNE 5.8 mph - 0.00 in Snow Light Snow
5:16 PM 17.1 °F 8.7 °F 14.0 °F 88% 29.86 in 10.0 mi NNE 5.8 mph - 0.00 in   Overcast
5:53 PM 16.0 °F 10.4 °F 12.9 °F 88% 29.96 in 10.0 mi Variable 3.5 mph - 0.00 in   Overcast
6:53 PM 15.1 °F 7.7 °F 12.0 °F 88% 29.97 in 10.0 mi Variable 4.6 mph - N/A   Overcast
7:53 PM 14.0 °F 5.1 °F 10.9 °F 88% 29.97 in 4.0 mi North 5.8 mph - 0.00 in Snow Light Snow
8:02 PM 14.0 °F 5.1 °F 10.9 °F 88% 29.90 in 4.0 mi Variable 5.8 mph - 0.00 in Snow Light Snow
8:53 PM 14.0 °F 3.9 °F 10.0 °F 84% 30.00 in 4.0 mi Variable 6.9 mph - 0.00 in Snow Light Snow
9:18 PM 14.0 °F 5.1 °F 10.0 °F 84% 29.92 in 3.0 mi NNE 5.8 mph - 0.00 in Snow Light Snow
9:53 PM 14.0 °F 6.5 °F 10.0 °F 84% 30.01 in 2.5 mi NE 4.6 mph - 0.00 in Snow Light Snow
10:36 PM 12.9 °F 2.6 °F 10.0 °F 88% 29.95 in 3.0 mi NE 6.9 mph - 0.00 in Snow Light Snow
10:51 PM 12.2 °F 1.7 °F 10.4 °F 92% 29.95 in 3.0 mi NNE 6.9 mph - 0.00 in Snow Light Snow
10:53 PM 12.9 °F 3.8 °F 10.0 °F 88% 30.02 in 3.0 mi NNE 5.8 mph - 0.00 in Snow Light Snow
11:53 PM 12.9 °F 5.2 °F 9.0 °F 84% 30.04 in 3.0 mi NNE 4.6 mph - 0.01 in Snow Light Snow